Year,Month,Day,Hour,Minute,Value (Times are PST for temperature in C)
2015,11,27,00,00,-2.90
2015,11,27,00,01,-2.90
2015,11,27,00,02,-2.90
2015,11,27,00,03,-2.90
2015,11,27,00,04,-2.90
2015,11,27,00,05,-2.90
2015,11,27,00,06,-3.00
2015,11,27,00,07,-3.00
2015,11,27,00,08,-3.00
2015,11,27,00,09,-3.00
2015,11,27,00,10,-3.00
2015,11,27,00,11,-3.00
2015,11,27,00,12,-3.00
2015,11,27,00,13,-3.00
2015,11,27,00,14,-3.00
2015,11,27,00,15,-3.00
2015,11,27,00,16,-3.00
2015,11,27,00,17,-3.00
2015,11,27,00,18,-3.00
2015,11,27,00,19,-3.00
2015,11,27,00,20,-3.00
2015,11,27,00,21,-3.00
2015,11,27,00,22,-3.10
2015,11,27,00,23,-3.10
2015,11,27,00,24,-3.10
2015,11,27,00,25,-3.10
2015,11,27,00,26,-3.10
2015,11,27,00,27,-3.10
2015,11,27,00,28,-3.10
2015,11,27,00,29,-3.10
2015,11,27,00,30,-3.10
2015,11,27,00,31,-3.10
2015,11,27,00,32,-3.10
2015,11,27,00,33,-3.10
2015,11,27,00,34,-3.00
2015,11,27,00,35,-3.00
2015,11,27,00,36,-3.00
2015,11,27,00,37,-3.00
2015,11,27,00,38,-2.90
2015,11,27,00,39,-2.90
2015,11,27,00,40,-2.90
2015,11,27,00,41,-2.80
2015,11,27,00,42,-2.80
2015,11,27,00,43,-2.70
2015,11,27,00,44,-2.70
2015,11,27,00,45,-2.70
2015,11,27,00,46,-2.70
2015,11,27,00,47,-2.70
2015,11,27,00,48,-2.60
2015,11,27,00,49,-2.50
2015,11,27,00,50,-2.50
2015,11,27,00,51,-2.40
2015,11,27,00,52,-2.30
2015,11,27,00,53,-2.30
2015,11,27,00,54,-2.20
2015,11,27,00,55,-2.20
2015,11,27,00,56,-2.10
2015,11,27,00,57,-2.10
2015,11,27,00,58,-2.10
2015,11,27,00,59,-1.90
2015,11,27,01,00,-1.80
2015,11,27,01,01,-1.70
2015,11,27,01,02,-1.60
2015,11,27,01,03,-1.50
2015,11,27,01,04,-1.50
2015,11,27,01,05,-1.40
2015,11,27,01,06,-1.30
2015,11,27,01,07,-1.20
2015,11,27,01,08,-1.00
2015,11,27,01,09,-0.90
2015,11,27,01,10,-0.80
2015,11,27,01,11,-0.70
2015,11,27,01,12,-0.60
2015,11,27,01,13,-0.40
2015,11,27,01,14,-0.30
2015,11,27,01,15,-0.20
2015,11,27,01,16,-0.20
2015,11,27,01,17,-0.10
2015,11,27,01,18,-0.10
2015,11,27,01,19,0.00
2015,11,27,01,20,0.10
2015,11,27,01,21,0.10
2015,11,27,01,22,0.20
2015,11,27,01,23,0.30
2015,11,27,01,24,0.30
2015,11,27,01,25,0.30
2015,11,27,01,26,0.30
2015,11,27,01,27,0.40
2015,11,27,01,28,0.40
2015,11,27,01,29,0.40
2015,11,27,01,30,0.40
2015,11,27,01,31,0.40
2015,11,27,01,32,0.40
2015,11,27,01,33,0.40
2015,11,27,01,34,0.30
2015,11,27,01,35,0.30
2015,11,27,01,36,0.30
2015,11,27,01,37,0.30
2015,11,27,01,38,0.30
2015,11,27,01,39,0.30
2015,11,27,01,40,0.40
2015,11,27,01,41,0.40
2015,11,27,01,42,0.30
2015,11,27,01,43,0.30
2015,11,27,01,44,0.30
2015,11,27,01,45,0.20
2015,11,27,01,46,0.20
2015,11,27,01,47,0.20
2015,11,27,01,48,0.20
2015,11,27,01,49,0.20
2015,11,27,01,50,0.20
2015,11,27,01,51,0.20
2015,11,27,01,52,0.10
2015,11,27,01,53,0.10
2015,11,27,01,54,0.10
2015,11,27,01,55,0.00
2015,11,27,01,56,0.10
2015,11,27,01,57,0.00
2015,11,27,01,58,0.00
2015,11,27,01,59,0.00
2015,11,27,02,00,-0.10
2015,11,27,02,01,-0.10
2015,11,27,02,02,-0.10
2015,11,27,02,03,-0.10
2015,11,27,02,04,-0.20
2015,11,27,02,05,-0.20
2015,11,27,02,06,-0.20
2015,11,27,02,07,-0.30
2015,11,27,02,08,-0.30
2015,11,27,02,09,-0.30
2015,11,27,02,10,-0.40
2015,11,27,02,11,-0.40
2015,11,27,02,12,-0.50
2015,11,27,02,13,-0.50
2015,11,27,02,14,-0.60
2015,11,27,02,15,-0.60
2015,11,27,02,16,-0.60
2015,11,27,02,17,-0.60
2015,11,27,02,18,-0.60
2015,11,27,02,19,-0.60
2015,11,27,02,20,-0.60
2015,11,27,02,21,-0.50
2015,11,27,02,22,-0.40
2015,11,27,02,23,-0.40
2015,11,27,02,24,-0.40
2015,11,27,02,25,-0.40
2015,11,27,02,26,-0.40
2015,11,27,02,27,-0.50
2015,11,27,02,28,-0.50
2015,11,27,02,29,-0.50
2015,11,27,02,30,-0.50
2015,11,27,02,31,-0.50
2015,11,27,02,32,-0.50
2015,11,27,02,33,-0.50
2015,11,27,02,34,-0.50
2015,11,27,02,35,-0.50
2015,11,27,02,36,-0.50
2015,11,27,02,37,-0.60
2015,11,27,02,38,-0.60
2015,11,27,02,39,-0.60
2015,11,27,02,40,-0.60
2015,11,27,02,41,-0.70
2015,11,27,02,42,-0.70
2015,11,27,02,43,-0.70
2015,11,27,02,44,-0.70
2015,11,27,02,45,-0.80
2015,11,27,02,46,-0.80
2015,11,27,02,47,-0.70
2015,11,27,02,48,-0.70
2015,11,27,02,49,-0.70
2015,11,27,02,50,-0.70
2015,11,27,02,51,-0.80
2015,11,27,02,52,-0.80
2015,11,27,02,53,-0.80
2015,11,27,02,54,-0.80
2015,11,27,02,55,-0.80
2015,11,27,02,56,-0.80
2015,11,27,02,57,-0.80
2015,11,27,02,58,-0.80
2015,11,27,02,59,-0.70
2015,11,27,03,00,-0.50
2015,11,27,03,01,-0.40
2015,11,27,03,02,-0.40
2015,11,27,03,03,-0.40
2015,11,27,03,04,-0.30
2015,11,27,03,05,-0.30
2015,11,27,03,06,-0.30
2015,11,27,03,07,-0.30
2015,11,27,03,08,-0.20
2015,11,27,03,09,-0.20
2015,11,27,03,10,-0.20
2015,11,27,03,11,-0.20
2015,11,27,03,12,-0.20
2015,11,27,03,13,-0.20
2015,11,27,03,14,-0.30
2015,11,27,03,15,-0.30
2015,11,27,03,16,-0.30
2015,11,27,03,17,-0.30
2015,11,27,03,18,-0.30
2015,11,27,03,19,-0.30
2015,11,27,03,20,-0.30
2015,11,27,03,21,-0.30
2015,11,27,03,22,-0.20
2015,11,27,03,23,-0.20
2015,11,27,03,24,-0.10
2015,11,27,03,25,0.00
2015,11,27,03,26,0.10
2015,11,27,03,27,0.10
2015,11,27,03,28,0.20
2015,11,27,03,29,0.20
2015,11,27,03,30,0.30
2015,11,27,03,31,0.30
2015,11,27,03,32,0.30
2015,11,27,03,33,0.40
2015,11,27,03,34,0.40
2015,11,27,03,35,0.50
2015,11,27,03,36,0.60
2015,11,27,03,37,0.60
2015,11,27,03,38,0.70
2015,11,27,03,39,0.70
2015,11,27,03,40,0.70
2015,11,27,03,41,0.70
2015,11,27,03,42,0.80
2015,11,27,03,43,0.80
2015,11,27,03,44,0.90
2015,11,27,03,45,0.90
2015,11,27,03,46,1.00
2015,11,27,03,47,1.00
2015,11,27,03,48,1.00
2015,11,27,03,49,1.00
2015,11,27,03,50,1.00
2015,11,27,03,51,1.00
2015,11,27,03,52,1.00
2015,11,27,03,53,0.90
2015,11,27,03,54,0.90
2015,11,27,03,55,0.90
2015,11,27,03,56,0.90
2015,11,27,03,57,0.90
2015,11,27,03,58,0.90
2015,11,27,03,59,0.80
2015,11,27,04,00,0.80
2015,11,27,04,01,0.70
2015,11,27,04,02,0.60
2015,11,27,04,03,0.50
2015,11,27,04,04,0.40
2015,11,27,04,05,0.30
2015,11,27,04,06,0.30
2015,11,27,04,07,0.20
2015,11,27,04,08,0.20
2015,11,27,04,09,0.10
2015,11,27,04,10,0.00
2015,11,27,04,11,-0.10
2015,11,27,04,12,-0.10
2015,11,27,04,13,-0.20
2015,11,27,04,14,-0.30
2015,11,27,04,15,-0.40
2015,11,27,04,16,-0.40
2015,11,27,04,17,-0.50
2015,11,27,04,18,-0.50
2015,11,27,04,19,-0.60
2015,11,27,04,20,-0.60
2015,11,27,04,21,-0.70
2015,11,27,04,22,-0.80
2015,11,27,04,23,-0.80
2015,11,27,04,24,-0.90
2015,11,27,04,25,-0.90
2015,11,27,04,26,-1.00
2015,11,27,04,27,-1.00
2015,11,27,04,28,-1.00
2015,11,27,04,29,-1.10
2015,11,27,04,30,-1.10
2015,11,27,04,31,-1.10
2015,11,27,04,32,-1.20
2015,11,27,04,33,-1.20
2015,11,27,04,34,-1.20
2015,11,27,04,35,-1.20
2015,11,27,04,36,-1.20
2015,11,27,04,37,-1.20
2015,11,27,04,38,-1.20
2015,11,27,04,39,-1.20
2015,11,27,04,40,-1.20
2015,11,27,04,41,-1.30
2015,11,27,04,42,-1.30
2015,11,27,04,43,-1.30
2015,11,27,04,44,-1.30
2015,11,27,04,45,-1.30
2015,11,27,04,46,-1.30
2015,11,27,04,47,-1.30
2015,11,27,04,48,-1.40
2015,11,27,04,49,-1.40
2015,11,27,04,50,-1.40
2015,11,27,04,51,-1.40
2015,11,27,04,52,-1.40
2015,11,27,04,53,-1.40
2015,11,27,04,54,-1.50
2015,11,27,04,55,-1.50
2015,11,27,04,56,-1.50
2015,11,27,04,57,-1.60
2015,11,27,04,58,-1.60
2015,11,27,04,59,-1.60
2015,11,27,05,00,-1.70
2015,11,27,05,01,-1.70
2015,11,27,05,02,-1.70
2015,11,27,05,03,-1.70
2015,11,27,05,04,-1.70
2015,11,27,05,05,-1.70
2015,11,27,05,06,-1.70
2015,11,27,05,07,-1.70
2015,11,27,05,08,-1.60
2015,11,27,05,09,-1.50
2015,11,27,05,10,-1.40
2015,11,27,05,11,-1.30
2015,11,27,05,12,-1.30
2015,11,27,05,13,-1.30
2015,11,27,05,14,-1.30
2015,11,27,05,15,-1.20
2015,11,27,05,16,-1.20
2015,11,27,05,17,-1.20
2015,11,27,05,18,-1.20
2015,11,27,05,19,-1.20
2015,11,27,05,20,-1.20
2015,11,27,05,21,-1.20
2015,11,27,05,22,-1.20
2015,11,27,05,23,-1.30
2015,11,27,05,24,-1.20
2015,11,27,05,25,-1.20
2015,11,27,05,26,-1.20
2015,11,27,05,27,-1.20
2015,11,27,05,28,-1.20
2015,11,27,05,29,-1.20
2015,11,27,05,30,-1.20
2015,11,27,05,31,-1.20
2015,11,27,05,32,-1.30
2015,11,27,05,33,-1.30
2015,11,27,05,34,-1.30
2015,11,27,05,35,-1.30
2015,11,27,05,36,-1.30
2015,11,27,05,37,-1.30
2015,11,27,05,38,-1.30
2015,11,27,05,39,-1.30
2015,11,27,05,40,-1.40
2015,11,27,05,41,-1.40
2015,11,27,05,42,-1.40
2015,11,27,05,43,-1.40
2015,11,27,05,44,-1.40
2015,11,27,05,45,-1.50
2015,11,27,05,46,-1.50
2015,11,27,05,47,-1.50
2015,11,27,05,48,-1.60
2015,11,27,05,49,-1.60
2015,11,27,05,50,-1.60
2015,11,27,05,51,-1.60
2015,11,27,05,52,-1.50
2015,11,27,05,53,-1.50
2015,11,27,05,54,-1.60
2015,11,27,05,55,-1.60
2015,11,27,05,56,-1.60
2015,11,27,05,57,-1.70
2015,11,27,05,58,-1.70
2015,11,27,05,59,-1.70
2015,11,27,06,00,-1.80
2015,11,27,06,01,-1.80
2015,11,27,06,02,-1.80
2015,11,27,06,03,-1.80
2015,11,27,06,04,-1.80
2015,11,27,06,05,-1.90
2015,11,27,06,06,-1.90
2015,11,27,06,07,-1.90
2015,11,27,06,08,-1.90
2015,11,27,06,09,-1.90
2015,11,27,06,10,-2.00
2015,11,27,06,11,-2.00
2015,11,27,06,12,-2.00
2015,11,27,06,13,-2.00
2015,11,27,06,14,-2.00
2015,11,27,06,15,-2.00
2015,11,27,06,16,-1.90
2015,11,27,06,17,-1.90
2015,11,27,06,18,-1.90
2015,11,27,06,19,-1.90
2015,11,27,06,20,-1.90
2015,11,27,06,21,-1.90
2015,11,27,06,22,-1.90
2015,11,27,06,23,-1.90
2015,11,27,06,24,-2.00
2015,11,27,06,25,-2.00
2015,11,27,06,26,-2.10
2015,11,27,06,27,-2.10
2015,11,27,06,28,-2.10
2015,11,27,06,29,-2.10
2015,11,27,06,30,-2.10
2015,11,27,06,31,-2.20
2015,11,27,06,32,-2.20
2015,11,27,06,33,-2.20
2015,11,27,06,34,-2.20
2015,11,27,06,35,-2.20
2015,11,27,06,36,-2.30
2015,11,27,06,37,-2.30
2015,11,27,06,38,-2.30
2015,11,27,06,39,-2.30
2015,11,27,06,40,-2.30
2015,11,27,06,41,-2.30
2015,11,27,06,42,-2.30
2015,11,27,06,43,-2.30
2015,11,27,06,44,-2.40
2015,11,27,06,45,-2.40
2015,11,27,06,46,-2.40
2015,11,27,06,47,-2.40
2015,11,27,06,48,-2.40
2015,11,27,06,49,-2.40
2015,11,27,06,50,-2.40
2015,11,27,06,51,-2.40
2015,11,27,06,52,-2.50
2015,11,27,06,53,-2.50
2015,11,27,06,54,-2.50
2015,11,27,06,55,-2.60
2015,11,27,06,56,-2.60
2015,11,27,06,57,-2.60
2015,11,27,06,58,-2.60
2015,11,27,06,59,-2.60
2015,11,27,07,00,-2.60
2015,11,27,07,01,-2.60
2015,11,27,07,02,-2.70
2015,11,27,07,03,-2.70
2015,11,27,07,04,-2.70
2015,11,27,07,05,-2.70
2015,11,27,07,06,-2.70
2015,11,27,07,07,-2.70
2015,11,27,07,08,-2.70
2015,11,27,07,09,-2.70
2015,11,27,07,10,-2.70
2015,11,27,07,11,-2.80
2015,11,27,07,12,-2.80
2015,11,27,07,13,-2.80
2015,11,27,07,14,-2.80
2015,11,27,07,15,-2.80
2015,11,27,07,16,-2.70
2015,11,27,07,17,-2.70
2015,11,27,07,18,-2.80
2015,11,27,07,19,-2.80
2015,11,27,07,20,-2.80
2015,11,27,07,21,-2.80
2015,11,27,07,22,-2.80
2015,11,27,07,23,-2.80
2015,11,27,07,24,-2.80
2015,11,27,07,25,-2.80
2015,11,27,07,26,-2.80
2015,11,27,07,27,-2.80
2015,11,27,07,28,-2.80
2015,11,27,07,29,-2.80
2015,11,27,07,30,-2.90
2015,11,27,07,31,-2.90
2015,11,27,07,32,-2.90
2015,11,27,07,33,-2.90
2015,11,27,07,34,-2.90
2015,11,27,07,35,-2.90
2015,11,27,07,36,-2.90
2015,11,27,07,37,-2.90
2015,11,27,07,38,-2.90
2015,11,27,07,39,-2.90
2015,11,27,07,40,-2.90
2015,11,27,07,41,-2.90
2015,11,27,07,42,-3.00
2015,11,27,07,43,-3.00
2015,11,27,07,44,-3.00
2015,11,27,07,45,-3.00
2015,11,27,07,46,-3.00
2015,11,27,07,47,-3.00
2015,11,27,07,48,-3.00
2015,11,27,07,49,-3.00
2015,11,27,07,50,-3.00
2015,11,27,07,51,-3.00
2015,11,27,07,52,-3.00
2015,11,27,07,53,-3.00
2015,11,27,07,54,-3.00
2015,11,27,07,55,-3.00
2015,11,27,07,56,-3.00
2015,11,27,07,57,-3.00
2015,11,27,07,58,-3.00
2015,11,27,07,59,-3.00
2015,11,27,08,00,-3.00
2015,11,27,08,01,-3.00
2015,11,27,08,02,-3.10
2015,11,27,08,03,-3.10
2015,11,27,08,04,-3.10
2015,11,27,08,05,-3.10
2015,11,27,08,06,-3.10
2015,11,27,08,07,-3.10
2015,11,27,08,08,-3.10
2015,11,27,08,09,-3.10
2015,11,27,08,10,-3.10
2015,11,27,08,11,-3.10
2015,11,27,08,12,-3.10
2015,11,27,08,13,-3.00
2015,11,27,08,14,-3.00
2015,11,27,08,15,-3.00
2015,11,27,08,16,-3.00
2015,11,27,08,17,-2.90
2015,11,27,08,18,-2.90
2015,11,27,08,19,-2.90
2015,11,27,08,20,-2.90
2015,11,27,08,21,-2.90
2015,11,27,08,22,-2.90
2015,11,27,08,23,-2.90
2015,11,27,08,24,-2.90
2015,11,27,08,25,-2.90
2015,11,27,08,26,-2.90
2015,11,27,08,27,-2.90
2015,11,27,08,28,-2.80
2015,11,27,08,29,-2.80
2015,11,27,08,30,-2.80
2015,11,27,08,31,-2.80
2015,11,27,08,32,-2.80
2015,11,27,08,33,-2.80
2015,11,27,08,34,-2.80
2015,11,27,08,35,-2.80
2015,11,27,08,36,-2.90
2015,11,27,08,37,-2.90
2015,11,27,08,38,-2.90
2015,11,27,08,39,-2.90
2015,11,27,08,40,-2.90
2015,11,27,08,41,-2.90
2015,11,27,08,42,-2.90
2015,11,27,08,43,-2.90
2015,11,27,08,44,-2.90
2015,11,27,08,45,-2.90
2015,11,27,08,46,-2.90
2015,11,27,08,47,-2.90
2015,11,27,08,48,-2.90
2015,11,27,08,49,-2.90
2015,11,27,08,50,-2.90
2015,11,27,08,51,-2.80
2015,11,27,08,52,-2.80
2015,11,27,08,53,-2.80
2015,11,27,08,54,-2.80
2015,11,27,08,55,-2.80
2015,11,27,08,56,-2.80
2015,11,27,08,57,-2.80
2015,11,27,08,58,-2.80
2015,11,27,08,59,-2.80
2015,11,27,09,00,-2.80
2015,11,27,09,01,-2.80
2015,11,27,09,02,-2.70
2015,11,27,09,03,-2.70
2015,11,27,09,04,-2.70
2015,11,27,09,05,-2.70
2015,11,27,09,06,-2.60
2015,11,27,09,07,-2.60
2015,11,27,09,08,-2.50
2015,11,27,09,09,-2.50
2015,11,27,09,10,-2.40
2015,11,27,09,11,-2.40
2015,11,27,09,12,-2.40
2015,11,27,09,13,-2.30
2015,11,27,09,14,-2.30
2015,11,27,09,15,-2.20
2015,11,27,09,16,-2.20
2015,11,27,09,17,-2.10
2015,11,27,09,18,-2.10
2015,11,27,09,19,-2.00
2015,11,27,09,20,-1.90
2015,11,27,09,21,-1.90
2015,11,27,09,22,-1.80
2015,11,27,09,23,-1.70
2015,11,27,09,24,-1.70
2015,11,27,09,25,-1.50
2015,11,27,09,26,-1.40
2015,11,27,09,27,-1.10
2015,11,27,09,28,-0.90
2015,11,27,09,29,-0.70
2015,11,27,09,30,-0.60
2015,11,27,09,31,-0.60
2015,11,27,09,32,-0.40
2015,11,27,09,33,-0.20
2015,11,27,09,34,-0.10
2015,11,27,09,35,0.00
2015,11,27,09,36,0.10
2015,11,27,09,37,0.20
2015,11,27,09,38,0.30
2015,11,27,09,39,0.50
2015,11,27,09,40,0.60
2015,11,27,09,41,0.70
2015,11,27,09,42,0.90
2015,11,27,09,43,1.00
2015,11,27,09,44,1.10
2015,11,27,09,45,1.20
2015,11,27,09,46,1.30
2015,11,27,09,47,1.30
2015,11,27,09,48,1.30
2015,11,27,09,49,1.40
2015,11,27,09,50,1.50
2015,11,27,09,51,1.60
2015,11,27,09,52,1.60
2015,11,27,09,53,1.70
2015,11,27,09,54,1.70
2015,11,27,09,55,1.80
2015,11,27,09,56,1.90
2015,11,27,09,57,1.90
2015,11,27,09,58,2.00
2015,11,27,09,59,2.10
2015,11,27,10,00,2.10
2015,11,27,10,01,2.10
2015,11,27,10,02,2.20
2015,11,27,10,03,2.20
2015,11,27,10,04,2.30
2015,11,27,10,05,2.30
2015,11,27,10,06,2.30
2015,11,27,10,07,2.40
2015,11,27,10,08,2.40
2015,11,27,10,09,2.40
2015,11,27,10,10,2.40
2015,11,27,10,11,2.40
2015,11,27,10,12,2.40
2015,11,27,10,13,2.40
2015,11,27,10,14,2.40
2015,11,27,10,15,2.40
2015,11,27,10,16,2.40
2015,11,27,10,17,2.50
2015,11,27,10,18,2.50
2015,11,27,10,19,2.50
2015,11,27,10,20,2.60
2015,11,27,10,21,2.60
2015,11,27,10,22,2.60
2015,11,27,10,23,2.70
2015,11,27,10,24,2.70
2015,11,27,10,25,2.70
2015,11,27,10,26,2.80
2015,11,27,10,27,2.80
2015,11,27,10,28,3.00
2015,11,27,10,29,3.00
2015,11,27,10,30,3.10
2015,11,27,10,31,3.10
2015,11,27,10,32,3.20
2015,11,27,10,33,3.30
2015,11,27,10,34,3.40
2015,11,27,10,35,3.40
2015,11,27,10,36,3.50
2015,11,27,10,37,3.50
2015,11,27,10,38,3.60
2015,11,27,10,39,3.60
2015,11,27,10,40,3.70
2015,11,27,10,41,3.70
2015,11,27,10,42,3.70
2015,11,27,10,43,3.70
2015,11,27,10,44,3.70
2015,11,27,10,45,3.80
2015,11,27,10,46,3.80
2015,11,27,10,47,3.70
2015,11,27,10,48,3.70
2015,11,27,10,49,3.70
2015,11,27,10,50,3.70
2015,11,27,10,51,3.70
2015,11,27,10,52,3.60
2015,11,27,10,53,3.60
2015,11,27,10,54,3.60
2015,11,27,10,55,3.50
2015,11,27,10,56,3.50
2015,11,27,10,57,3.40
2015,11,27,10,58,3.40
2015,11,27,10,59,3.30
2015,11,27,11,00,3.30
2015,11,27,11,01,3.30
2015,11,27,11,02,3.20
2015,11,27,11,03,3.20
2015,11,27,11,04,3.20
2015,11,27,11,05,3.10
2015,11,27,11,06,3.10
2015,11,27,11,07,3.20
2015,11,27,11,08,3.20
2015,11,27,11,09,3.30
2015,11,27,11,10,3.30
2015,11,27,11,11,3.40
2015,11,27,11,12,3.40
2015,11,27,11,13,3.40
2015,11,27,11,14,3.50
2015,11,27,11,15,3.50
2015,11,27,11,16,3.50
2015,11,27,11,17,3.50
2015,11,27,11,18,3.50
2015,11,27,11,19,3.50
2015,11,27,11,20,3.50
2015,11,27,11,21,3.50
2015,11,27,11,22,3.50
2015,11,27,11,23,3.50
2015,11,27,11,24,3.50
2015,11,27,11,25,3.60
2015,11,27,11,26,3.60
2015,11,27,11,27,3.60
2015,11,27,11,28,3.60
2015,11,27,11,29,3.70
2015,11,27,11,30,3.70
2015,11,27,11,31,3.80
2015,11,27,11,32,3.80
2015,11,27,11,33,3.80
2015,11,27,11,34,3.80
2015,11,27,11,35,3.80
2015,11,27,11,36,3.80
2015,11,27,11,37,3.80
2015,11,27,11,38,3.90
2015,11,27,11,39,3.90
2015,11,27,11,40,4.00
2015,11,27,11,41,4.00
2015,11,27,11,42,4.10
2015,11,27,11,43,4.10
2015,11,27,11,44,4.10
2015,11,27,11,45,4.20
2015,11,27,11,46,4.20
2015,11,27,11,47,4.30
2015,11,27,11,48,4.30
2015,11,27,11,49,4.30
2015,11,27,11,50,4.30
2015,11,27,11,51,4.40
2015,11,27,11,52,4.40
2015,11,27,11,53,4.50
2015,11,27,11,54,4.50
2015,11,27,11,55,4.60
2015,11,27,11,56,4.60
2015,11,27,11,57,4.70
2015,11,27,11,58,4.70
2015,11,27,11,59,4.80
2015,11,27,12,00,4.80
2015,11,27,12,01,4.90
2015,11,27,12,02,4.90
2015,11,27,12,03,5.00
2015,11,27,12,04,5.00
2015,11,27,12,05,5.00
2015,11,27,12,06,5.10
2015,11,27,12,07,5.10
2015,11,27,12,08,5.20
2015,11,27,12,09,5.20
2015,11,27,12,10,5.30
2015,11,27,12,11,5.30
2015,11,27,12,12,5.30
2015,11,27,12,13,5.40
2015,11,27,12,14,5.40
2015,11,27,12,15,5.50
2015,11,27,12,16,5.50
2015,11,27,12,17,5.60
2015,11,27,12,18,5.60
2015,11,27,12,19,5.60
2015,11,27,12,20,5.70
2015,11,27,12,21,5.70
2015,11,27,12,22,5.80
2015,11,27,12,23,5.80
2015,11,27,12,24,5.80
2015,11,27,12,25,5.80
2015,11,27,12,26,5.80
2015,11,27,12,27,5.80
2015,11,27,12,28,5.80
2015,11,27,12,29,5.80
2015,11,27,12,30,5.80
2015,11,27,12,31,5.80
2015,11,27,12,32,5.80
2015,11,27,12,33,5.80
2015,11,27,12,34,5.70
2015,11,27,12,35,5.70
2015,11,27,12,36,5.70
2015,11,27,12,37,5.70
2015,11,27,12,38,5.70
2015,11,27,12,39,5.70
2015,11,27,12,40,5.80
2015,11,27,12,41,5.80
2015,11,27,12,42,5.80
2015,11,27,12,43,5.90
2015,11,27,12,44,5.90
2015,11,27,12,45,5.90
2015,11,27,12,46,5.90
2015,11,27,12,47,5.90
2015,11,27,12,48,5.90
2015,11,27,12,49,5.90
2015,11,27,12,50,5.90
2015,11,27,12,51,5.90
2015,11,27,12,52,6.00
2015,11,27,12,53,6.00
2015,11,27,12,54,6.10
2015,11,27,12,55,6.10
2015,11,27,12,56,6.10
2015,11,27,12,57,6.10
2015,11,27,12,58,6.10
2015,11,27,12,59,6.10
2015,11,27,13,00,6.20
2015,11,27,13,01,6.20
2015,11,27,13,02,6.20
2015,11,27,13,03,6.20
2015,11,27,13,04,6.20
2015,11,27,13,05,6.20
2015,11,27,13,06,6.20
2015,11,27,13,07,6.20
2015,11,27,13,08,6.20
2015,11,27,13,09,6.20
2015,11,27,13,10,6.20
2015,11,27,13,11,6.10
2015,11,27,13,12,6.10
2015,11,27,13,13,6.10
2015,11,27,13,14,6.10
2015,11,27,13,15,6.20
2015,11,27,13,16,6.20
2015,11,27,13,17,6.20
2015,11,27,13,18,6.20
2015,11,27,13,19,6.30
2015,11,27,13,20,6.30
2015,11,27,13,21,6.30
2015,11,27,13,22,6.30
2015,11,27,13,23,6.30
2015,11,27,13,24,6.30
2015,11,27,13,25,6.30
2015,11,27,13,26,6.30
2015,11,27,13,27,6.20
2015,11,27,13,28,6.20
2015,11,27,13,29,6.20
2015,11,27,13,30,6.20
2015,11,27,13,31,6.10
2015,11,27,13,32,6.10
2015,11,27,13,33,6.10
2015,11,27,13,34,6.00
2015,11,27,13,35,6.00
2015,11,27,13,36,5.90
2015,11,27,13,37,5.90
2015,11,27,13,38,5.90
2015,11,27,13,39,5.90
2015,11,27,13,40,5.90
2015,11,27,13,41,5.90
2015,11,27,13,42,5.90
2015,11,27,13,43,5.90
2015,11,27,13,44,5.90
2015,11,27,13,45,5.90
2015,11,27,13,46,5.90
2015,11,27,13,47,5.90
2015,11,27,13,48,5.90
2015,11,27,13,49,5.80
2015,11,27,13,50,5.80
2015,11,27,13,51,5.80
2015,11,27,13,52,5.80
2015,11,27,13,53,5.80
2015,11,27,13,54,5.80
2015,11,27,13,55,5.80
2015,11,27,13,56,5.80
2015,11,27,13,57,5.80
2015,11,27,13,58,5.80
2015,11,27,13,59,5.80
2015,11,27,14,00,5.80
2015,11,27,14,01,5.80
2015,11,27,14,02,5.80
2015,11,27,14,03,5.80
2015,11,27,14,04,5.80
2015,11,27,14,05,5.80
2015,11,27,14,06,5.80
2015,11,27,14,07,5.80
2015,11,27,14,08,5.80
2015,11,27,14,09,5.80
2015,11,27,14,10,5.80
2015,11,27,14,11,5.80
2015,11,27,14,12,5.80
2015,11,27,14,13,5.80
2015,11,27,14,14,5.80
2015,11,27,14,15,5.80
2015,11,27,14,16,5.80
2015,11,27,14,17,5.80
2015,11,27,14,18,5.80
2015,11,27,14,19,5.80
2015,11,27,14,20,5.80
2015,11,27,14,21,5.80
2015,11,27,14,22,5.80
2015,11,27,14,23,5.80
2015,11,27,14,24,5.70
2015,11,27,14,25,5.70
2015,11,27,14,26,5.70
2015,11,27,14,27,5.70
2015,11,27,14,28,5.70
2015,11,27,14,29,5.70
2015,11,27,14,30,5.70
2015,11,27,14,31,5.60
2015,11,27,14,32,5.60
2015,11,27,14,33,5.60
2015,11,27,14,34,5.60
2015,11,27,14,35,5.60
2015,11,27,14,36,5.50
2015,11,27,14,37,5.50
2015,11,27,14,38,5.50
2015,11,27,14,39,5.50
2015,11,27,14,40,5.50
2015,11,27,14,41,5.50
2015,11,27,14,42,5.50
2015,11,27,14,43,5.50
2015,11,27,14,44,5.50
2015,11,27,14,45,5.40
2015,11,27,14,46,5.40
2015,11,27,14,47,5.40
2015,11,27,14,48,5.40
2015,11,27,14,49,5.30
2015,11,27,14,50,5.30
2015,11,27,14,51,5.30
2015,11,27,14,52,5.20
2015,11,27,14,53,5.20
2015,11,27,14,54,5.20
2015,11,27,14,55,5.20
2015,11,27,14,56,5.20
2015,11,27,14,57,5.20
2015,11,27,14,58,5.10
2015,11,27,14,59,5.10
2015,11,27,15,00,5.10
2015,11,27,15,01,5.10
2015,11,27,15,02,5.10
2015,11,27,15,03,5.10
2015,11,27,15,04,5.10
2015,11,27,15,05,5.10
2015,11,27,15,06,5.10
2015,11,27,15,07,5.10
2015,11,27,15,08,5.00
2015,11,27,15,09,5.00
2015,11,27,15,10,5.00
2015,11,27,15,11,4.90
2015,11,27,15,12,4.80
2015,11,27,15,13,4.80
2015,11,27,15,14,4.70
2015,11,27,15,15,4.60
2015,11,27,15,16,4.50
2015,11,27,15,17,4.50
2015,11,27,15,18,4.40
2015,11,27,15,19,4.40
2015,11,27,15,20,4.30
2015,11,27,15,21,4.30
2015,11,27,15,22,4.30
2015,11,27,15,23,4.20
2015,11,27,15,24,4.20
2015,11,27,15,25,4.10
2015,11,27,15,26,4.10
2015,11,27,15,27,4.00
2015,11,27,15,28,4.00
2015,11,27,15,29,3.90
2015,11,27,15,30,3.80
2015,11,27,15,31,3.80
2015,11,27,15,32,3.70
2015,11,27,15,33,3.70
2015,11,27,15,34,3.60
2015,11,27,15,35,3.60
2015,11,27,15,36,3.50
2015,11,27,15,37,3.50
2015,11,27,15,38,3.40
2015,11,27,15,39,3.30
2015,11,27,15,40,3.30
2015,11,27,15,41,3.20
2015,11,27,15,42,3.20
2015,11,27,15,43,3.10
2015,11,27,15,44,3.10
2015,11,27,15,45,3.00
2015,11,27,15,46,3.00
2015,11,27,15,47,2.90
2015,11,27,15,48,2.90
2015,11,27,15,49,2.80
2015,11,27,15,50,2.80
2015,11,27,15,51,2.70
2015,11,27,15,52,2.60
2015,11,27,15,53,2.60
2015,11,27,15,54,2.50
2015,11,27,15,55,2.40
2015,11,27,15,56,2.40
2015,11,27,15,57,2.30
2015,11,27,15,58,2.20
2015,11,27,15,59,2.20
2015,11,27,16,00,2.10
2015,11,27,16,01,2.10
2015,11,27,16,02,2.00
2015,11,27,16,03,2.00
2015,11,27,16,04,1.90
2015,11,27,16,05,1.90
2015,11,27,16,06,1.80
2015,11,27,16,07,1.80
2015,11,27,16,08,1.80
2015,11,27,16,09,1.70
2015,11,27,16,10,1.60
2015,11,27,16,11,1.60
2015,11,27,16,12,1.50
2015,11,27,16,13,1.40
2015,11,27,16,14,1.40
2015,11,27,16,15,1.30
2015,11,27,16,16,1.30
2015,11,27,16,17,1.30
2015,11,27,16,18,1.30
2015,11,27,16,19,1.30
2015,11,27,16,20,1.20
2015,11,27,16,21,1.20
2015,11,27,16,22,1.10
2015,11,27,16,23,1.10
2015,11,27,16,24,1.00
2015,11,27,16,25,1.00
2015,11,27,16,26,0.90
2015,11,27,16,27,0.90
2015,11,27,16,28,0.80
2015,11,27,16,29,0.80
2015,11,27,16,30,0.70
2015,11,27,16,31,0.70
2015,11,27,16,32,0.60
2015,11,27,16,33,0.60
2015,11,27,16,34,0.50
2015,11,27,16,35,0.50
2015,11,27,16,36,0.40
2015,11,27,16,37,0.40
2015,11,27,16,38,0.30
2015,11,27,16,39,0.30
2015,11,27,16,40,0.30
2015,11,27,16,41,0.20
2015,11,27,16,42,0.20
2015,11,27,16,43,0.20
2015,11,27,16,44,0.10
2015,11,27,16,45,0.10
2015,11,27,16,46,0.00
2015,11,27,16,47,0.00
2015,11,27,16,48,0.00
2015,11,27,16,49,-0.10
2015,11,27,16,50,-0.10
2015,11,27,16,51,-0.10
2015,11,27,16,52,-0.20
2015,11,27,16,53,-0.20
2015,11,27,16,54,-0.20
2015,11,27,16,55,-0.20
2015,11,27,16,56,-0.30
2015,11,27,16,57,-0.30
2015,11,27,16,58,-0.30
2015,11,27,16,59,-0.30
2015,11,27,17,00,-0.30
2015,11,27,17,01,-0.30
2015,11,27,17,02,-0.30
2015,11,27,17,03,-0.30
2015,11,27,17,04,-0.30
2015,11,27,17,05,-0.30
2015,11,27,17,06,-0.30
2015,11,27,17,07,-0.40
2015,11,27,17,08,-0.40
2015,11,27,17,09,-0.40
2015,11,27,17,10,-0.40
2015,11,27,17,11,-0.50
2015,11,27,17,12,-0.50
2015,11,27,17,13,-0.50
2015,11,27,17,14,-0.60
2015,11,27,17,15,-0.60
2015,11,27,17,16,-0.60
2015,11,27,17,17,-0.60
2015,11,27,17,18,-0.60
2015,11,27,17,19,-0.60
2015,11,27,17,20,-0.60
2015,11,27,17,21,-0.70
2015,11,27,17,22,-0.70
2015,11,27,17,23,-0.70
2015,11,27,17,24,-0.70
2015,11,27,17,25,-0.80
2015,11,27,17,26,-0.80
2015,11,27,17,27,-0.80
2015,11,27,17,28,-0.80
2015,11,27,17,29,-0.80
2015,11,27,17,30,-0.80
2015,11,27,17,31,-0.90
2015,11,27,17,32,-0.90
2015,11,27,17,33,-0.90
2015,11,27,17,34,-0.90
2015,11,27,17,35,-0.90
2015,11,27,17,36,-0.90
2015,11,27,17,37,-1.00
2015,11,27,17,38,-1.00
2015,11,27,17,39,-1.00
2015,11,27,17,40,-1.10
2015,11,27,17,41,-1.10
2015,11,27,17,42,-1.10